Wind_Speed
12 12 11 11 11 11 12 12 13 13 13 13 12 12 12 13 12 12 11 11 11 11 12 12 12 11 11 10 10 10 10 9 9 9 9 9 9 9 9 9 9 9
13 12 12 13 12 12 12 13 13 14 14 13 13 13 12 13 12 12 11 11 11 11 11 11 11 12 11 11 10 10 10 10 9 9 9 8 9 9 9 9 9 9
14 14 14 14 14 13 13 13 13 14 14 14 13 13 13 13 13 12 12 11 11 11 11 11 11 11 12 11 11 11 10 10 10 9 9 9 9 9 9 9 10 10
14 14 15 15 15 15 14 14 14 14 14 14 14 14 14 14 14 13 13 12 11 11 10 10 11 11 11 11 12 11 11 10 10 10 9 9 9 9 10 10 11 11
14 14 15 15 16 16 16 15 14 14 14 14 14 14 15 15 15 15 14 13 12 12 11 11 11 11 11 11 11 12 12 11 11 10 10 10 10 10 10 10 11 12
15 14 15 16 17 18 17 16 16 15 15 15 15 15 15 16 16 16 15 15 14 13 13 12 12 12 12 12 11 11 11 11 11 11 10 10 10 10 10 10 11 12
16 15 15 15 16 17 18 18 18 17 16 16 16 16 16 16 16 16 16 15 15 15 14 13 13 12 12 12 12 11 11 11 11 11 11 10 10 10 10 10 11 11
18 17 16 15 16 17 18 19 19 19 18 18 17 16 16 15 15 15 15 15 15 15 15 14 13 13 13 13 13 12 12 11 11 11 11 11 10 10 10 10 10 10
20 19 17 16 16 17 17 18 19 19 19 19 18 16 15 15 15 15 15 15 15 15 15 15 14 14 13 13 13 13 13 13 12 12 12 11 11 11 10 10 10 10
23 22 20 18 18 17 17 17 16 17 18 19 18 17 16 16 16 16 15 15 15 15 14 14 14 14 14 14 14 14 14 14 14 13 13 13 12 12 12 11 10 10
25 24 22 20 19 17 16 15 14 15 15 16 17 17 17 16 16 17 17 16 15 15 14 13 14 14 14 14 14 14 14 14 14 14 14 14 14 13 13 12 11 11
24 24 23 22 20 18 17 16 15 15 15 15 15 15 16 16 17 17 17 17 16 15 14 14 14 14 14 14 14 14 15 15 14 14 14 14 14 14 14 13 12 12
22 22 22 22 21 20 19 18 18 17 17 17 16 16 15 15 15 16 17 17 16 16 15 15 14 14 14 14 14 14 14 14 13 13 13 13 14 14 14 14 14 13
23 21 20 20 21 20 20 20 20 19 19 19 18 17 17 16 15 15 16 16 16 16 16 15 15 15 15 15 15 14 14 13 13 12 12 13 13 14 14 15 15 14
24 22 20 20 21 21 22 22 21 21 21 21 20 19 18 18 17 16 16 16 17 17 16 16 16 15 15 15 16 15 15 14 13 13 13 13 13 13 14 14 15 15
27 26 24 23 24 24 24 23 23 23 23 23 23 21 20 19 19 18 17 17 18 19 18 17 16 16 16 16 16 16 16 15 14 13 13 13 13 13 13 14 14 15
28 29 28 27 27 26 26 26 26 25 25 24 24 23 21 20 19 19 19 18 18 19 20 19 18 18 17 17 17 17 16 15 14 14 13 13 13 13 13 13 14 14
27 28 29 28 28 27 27 28 28 28 26 25 24 24 23 21 21 21 21 20 19 19 20 21 21 21 19 18 18 18 18 17 15 15 14 14 14 14 14 14 14 14
26 27 28 28 28 28 28 28 28 29 28 26 25 25 24 23 23 23 23 23 21 20 20 21 22 23 23 22 21 20 20 19 18 17 16 16 15 15 15 15 15 15
21 23 25 27 27 28 28 28 29 30 29 27 26 26 24 24 24 25 25 24 22 22 22 22 23 23 23 24 23 23 22 21 20 19 18 18 18 17 17 17 16 16
16 18 21 24 26 27 26 26 28 30 29 28 27 26 24 24 25 26 26 25 24 23 24 25 25 24 24 24 24 24 24 22 21 20 19 19 19 19 19 18 19 18
17 18 19 20 22 25 25 24 25 26 27 27 26 25 25 26 26 27 27 26 25 25 25 26 27 27 26 26 26 26 26 25 24 23 22 21 21 20 20 20 20 19
22 21 21 20 19 21 23 25 25 25 25 24 24 24 25 26 27 28 29 28 28 29 29 28 28 28 29 29 29 29 28 27 26 25 24 23 23 23 22 22 22 21
26 24 24 23 22 20 21 23 25 25 25 25 25 25 25 26 27 28 30 30 31 31 32 32 31 30 30 30 31 32 31 30 29 27 25 24 24 24 24 24 24 24
30 27 26 26 26 23 22 21 22 23 25 27 28 28 28 28 28 28 29 30 31 32 34 34 34 34 32 31 31 31 32 32 30 28 26 25 25 26 26 26 25 25
32 31 30 29 29 27 25 24 23 22 24 26 28 30 31 31 30 30 29 30 31 32 34 35 36 36 35 33 32 32 33 33 33 31 29 29 28 28 28 27 27 27
Wind_Direction
197 192 190 191 187 183 183 181 178 176 173 169 165 159 154 152 154 155 155 155 155 155 155 155 154 153 154 154 153 151 152 154 155 155 157 155 152 150 148 146 144 144
205 200 196 196 195 194 193 190 187 184 182 179 175 169 164 162 161 160 160 160 160 161 161 161 160 159 160 161 161 159 157 159 159 159 162 163 161 160 159 158 156 154
208 207 204 202 200 201 200 198 197 193 189 187 184 179 175 173 170 168 167 167 167 167 167 168 168 167 167 167 168 166 165 165 164 163 166 169 171 170 169 170 167 165
210 209 210 208 205 206 207 207 206 203 198 194 191 187 184 184 181 177 177 176 176 176 175 175 176 175 175 175 174 172 170 169 167 167 170 172 175 176 176 176 176 177
213 210 212 213 211 210 212 212 212 210 207 203 199 194 191 191 189 186 185 184 184 185 185 185 185 184 184 185 183 180 176 172 170 171 173 176 177 179 180 180 182 183
217 213 212 214 215 215 215 216 216 216 214 212 208 203 199 197 195 193 191 190 190 193 194 194 193 192 193 194 192 190 185 180 177 175 176 179 180 181 182 184 186 186
219 216 213 214 218 220 219 219 219 219 219 219 216 212 208 204 202 201 199 196 196 198 200 202 202 200 201 202 201 200 198 194 191 187 185 186 186 185 185 186 189 190
217 217 214 213 217 222 223 222 222 222 222 224 223 221 220 216 212 209 207 205 203 202 203 205 208 208 208 208 206 206 207 206 205 204 201 199 196 195 193 193 194 194
216 215 214 212 213 219 224 224 224 225 225 227 228 228 229 229 227 223 219 216 213 211 209 208 209 211 213 214 213 211 212 213 213 213 213 213 212 209 208 205 203 202
222 216 212 211 210 213 220 225 227 228 229 231 233 233 235 237 238 238 235 231 227 223 220 216 214 212 212 216 218 217 217 217 218 218 218 220 221 220 220 219 216 214
229 223 214 210 210 209 213 220 226 231 234 236 237 238 239 240 243 245 246 245 243 239 235 230 225 220 217 216 219 220 221 221 222 221 221 223 225 226 227 228 227 225
228 229 221 215 212 208 209 211 216 222 226 230 235 237 239 241 243 246 249 252 253 252 250 246 241 236 230 225 222 221 222 222 224 225 225 225 228 231 233 234 234 233
219 223 223 223 219 213 211 211 212 216 218 221 225 228 231 234 239 243 247 251 254 256 256 255 254 251 246 239 233 229 227 226 226 227 229 230 231 234 238 240 240 240
215 213 217 226 227 223 219 216 215 216 218 219 221 224 226 227 230 235 240 243 246 249 250 251 252 252 252 249 245 241 239 236 234 231 230 230 232 233 236 240 242 243
217 217 221 228 231 232 229 225 220 219 221 221 220 221 225 226 226 227 232 237 238 238 240 242 243 244 245 246 247 247 246 244 240 235 231 228 227 229 232 234 237 240
222 224 226 228 231 235 234 229 225 223 224 225 224 223 224 227 229 227 227 232 236 235 233 233 237 240 240 240 242 245 247 246 243 240 237 232 229 228 229 230 232 233
224 223 222 223 227 233 234 231 228 225 225 226 226 227 227 230 234 236 232 231 233 235 234 232 232 234 236 238 239 240 242 243 242 241 239 238 235 233 232 232 232 232
228 226 224 223 225 230 236 236 233 230 228 226 225 226 228 228 232 237 238 235 231 231 233 234 233 231 231 232 235 236 237 237 236 235 234 235 235 235 235 235 235 235
234 233 230 228 227 231 237 239 237 233 231 228 226 226 227 227 229 232 235 236 234 231 230 231 234 235 233 231 230 231 233 234 234 233 232 233 233 235 236 237 238 239
232 234 234 234 233 234 238 241 242 239 236 232 230 229 228 228 230 232 233 234 234 235 234 232 232 236 238 238 236 233 232 234 236 237 237 236 236 235 237 237 239 241
238 242 242 240 238 237 238 242 245 244 241 237 234 231 229 229 231 234 235 234 232 234 239 241 239 237 238 240 240 238 236 234 235 237 238 240 240 240 240 241 242 244
262 261 255 246 239 235 234 237 242 242 240 238 236 233 232 233 234 233 234 236 236 234 236 241 245 244 241 240 240 239 238 236 235 235 236 238 240 242 243 243 244 246
265 265 262 256 248 240 235 235 239 240 238 237 237 237 238 239 238 236 237 240 242 239 236 237 241 245 245 244 243 242 240 238 237 237 237 238 240 243 244 245 245 244
262 263 264 262 258 253 246 241 242 243 243 242 242 242 242 242 242 240 241 242 243 242 240 238 240 243 245 247 248 248 247 244 241 240 240 241 242 244 246 248 249 250
262 261 262 262 260 259 258 254 248 246 247 247 247 247 246 246 246 245 244 245 245 244 242 241 241 243 244 247 250 253 253 252 248 245 243 243 243 245 247 249 251 254
261 260 260 260 258 258 261 263 260 256 253 252 252 251 250 248 248 249 248 248 247 246 244 242 242 243 245 246 247 250 252 254 253 250 247 245 243 243 245 248 250 252
Height
5949 5950 5951 5951 5952 5952 5952 5953 5953 5954 5955 5956 5957 5957 5957 5958 5959 5960 5960 5961 5961 5962 5962 5963 5963 5964 5964 5965 5966 5966 5967 5967 5967 5968 5968 5969 5969 5970 5970 5971 5971 5972
5948 5949 5950 5951 5952 5952 5953 5953 5953 5954 5955 5956 5957 5957 5957 5958 5959 5960 5960 5961 5962 5962 5963 5963 5964 5964 5964 5965 5966 5966 5967 5967 5968 5968 5969 5969 5969 5970 5970 5971 5971 5972
5948 5949 5950 5951 5952 5952 5953 5953 5953 5954 5955 5956 5956 5957 5957 5958 5959 5959 5960 5961 5962 5962 5963 5963 5964 5964 5964 5965 5966 5966 5967 5968 5968 5968 5968 5969 5969 5969 5970 5970 5971 5971
5948 5949 5949 5950 5951 5952 5952 5953 5953 5954 5955 5955 5956 5957 5957 5958 5958 5959 5960 5961 5961 5962 5962 5963 5963 5964 5964 5965 5965 5966 5967 5967 5968 5968 5968 5969 5969 5969 5969 5970 5970 5971
5946 5948 5949 5950 5950 5951 5952 5952 5953 5954 5955 5955 5956 5957 5957 5958 5958 5959 5959 5960 5961 5961 5962 5962 5963 5963 5964 5965 5965 5966 5966 5967 5967 5968 5968 5968 5968 5969 5969 5969 5970 5970
5945 5946 5948 5949 5950 5950 5951 5952 5953 5953 5954 5955 5956 5957 5957 5958 5958 5959 5959 5960 5960 5961 5961 5962 5962 5963 5963 5964 5965 5965 5966 5966 5967 5967 5967 5968 5968 5968 5968 5969 5969 5969
5942 5944 5946 5947 5949 5949 5950 5951 5952 5953 5953 5954 5955 5956 5957 5958 5959 5959 5959 5959 5960 5960 5961 5961 5962 5962 5963 5963 5964 5965 5965 5966 5966 5966 5966 5967 5967 5967 5968 5968 5968 5969
5940 5942 5944 5946 5947 5948 5949 5950 5951 5952 5953 5953 5955 5956 5957 5958 5959 5959 5959 5959 5959 5960 5960 5961 5961 5961 5962 5962 5963 5964 5964 5965 5965 5966 5966 5966 5966 5967 5967 5967 5968 5968
5939 5939 5941 5943 5945 5946 5948 5949 5950 5951 5952 5953 5954 5955 5956 5957 5958 5959 5959 5959 5959 5959 5959 5960 5960 5960 5961 5961 5962 5963 5963 5964 5964 5965 5965 5966 5966 5966 5966 5967 5967 5967
5938 5937 5938 5940 5942 5944 5946 5948 5950 5951 5952 5953 5953 5955 5956 5957 5958 5958 5959 5959 5959 5959 5959 5959 5959 5959 5960 5960 5961 5961 5962 5963 5963 5963 5964 5965 5965 5965 5966 5966 5967 5967
5938 5937 5937 5938 5939 5941 5944 5946 5948 5950 5951 5952 5953 5954 5955 5956 5957 5958 5958 5959 5959 5960 5960 5959 5959 5959 5959 5959 5960 5960 5961 5961 5962 5962 5963 5963 5964 5964 5965 5966 5966 5967
5936 5938 5937 5937 5938 5939 5941 5943 5945 5947 5948 5949 5950 5951 5952 5954 5955 5956 5957 5959 5960 5960 5960 5960 5960 5959 5959 5959 5959 5959 5960 5961 5961 5961 5962 5963 5963 5964 5964 5965 5966 5966
5932 5936 5937 5937 5938 5938 5940 5941 5942 5943 5945 5946 5947 5948 5949 5951 5952 5954 5956 5957 5959 5959 5960 5960 5960 5960 5960 5960 5959 5959 5960 5960 5960 5961 5962 5962 5963 5963 5964 5964 5965 5966
5929 5931 5933 5935 5937 5938 5938 5939 5940 5941 5942 5943 5944 5945 5946 5947 5949 5951 5953 5954 5956 5957 5958 5958 5958 5959 5959 5959 5960 5960 5960 5960 5960 5961 5961 5961 5962 5962 5963 5963 5964 5965
5928 5929 5930 5932 5934 5936 5937 5938 5939 5940 5940 5940 5941 5942 5944 5945 5946 5948 5949 5951 5953 5954 5955 5956 5956 5956 5957 5958 5958 5959 5959 5960 5960 5960 5960 5960 5960 5960 5960 5961 5961 5962
5926 5927 5927 5929 5931 5933 5934 5936 5937 5937 5938 5938 5939 5940 5942 5943 5944 5945 5946 5948 5949 5951 5952 5953 5954 5955 5955 5955 5956 5957 5958 5958 5958 5959 5959 5959 5959 5959 5959 5959 5959 5959
5923 5925 5925 5926 5927 5929 5931 5932 5933 5934 5935 5936 5937 5938 5940 5942 5943 5943 5944 5944 5946 5948 5949 5950 5951 5952 5953 5953 5954 5954 5955 5956 5957 5957 5958 5958 5958 5958 5958 5958 5958 5958
5920 5922 5922 5922 5924 5926 5928 5929 5930 5931 5932 5933 5934 5935 5937 5938 5940 5941 5942 5942 5943 5945 5946 5947 5947 5948 5949 5950 5951 5951 5952 5953 5954 5955 5955 5956 5956 5956 5957 5957 5957 5956
5916 5918 5919 5919 5921 5923 5924 5926 5927 5927 5928 5930 5931 5932 5934 5935 5937 5939 5940 5940 5941 5942 5943 5943 5944 5944 5945 5946 5947 5948 5948 5949 5950 5952 5953 5953 5953 5954 5954 5954 5955 5955
5913 5914 5915 5917 5919 5920 5921 5923 5924 5924 5926 5928 5929 5930 5931 5932 5934 5936 5937 5938 5939 5939 5940 5940 5940 5941 5942 5943 5944 5945 5945 5946 5947 5948 5950 5950 5951 5951 5952 5952 5952 5952
5910 5911 5912 5914 5915 5917 5918 5920 5921 5922 5923 5925 5926 5927 5928 5930 5931 5932 5934 5936 5937 5938 5938 5938 5938 5938 5939 5940 5941 5942 5942 5943 5944 5944 5946 5947 5947 5948 5949 5949 5950 5950
5907 5908 5910 5911 5912 5914 5915 5917 5919 5919 5920 5921 5922 5924 5925 5926 5928 5929 5930 5931 5933 5935 5936 5935 5935 5935 5935 5936 5937 5938 5939 5940 5940 5941 5942 5943 5944 5944 5945 5946 5947 5947
5905 5906 5907 5909 5910 5911 5912 5914 5916 5916 5917 5918 5919 5920 5921 5923 5924 5925 5926 5927 5929 5931 5932 5932 5932 5932 5932 5932 5934 5935 5936 5936 5937 5938 5939 5940 5941 5941 5942 5942 5943 5944
5903 5904 5905 5906 5907 5909 5910 5911 5912 5913 5914 5915 5916 5917 5918 5919 5920 5921 5922 5923 5924 5926 5928 5929 5929 5929 5929 5930 5931 5933 5934 5935 5935 5936 5937 5938 5939 5939 5940 5940 5940 5941
5899 5901 5903 5904 5905 5906 5907 5908 5909 5910 5911 5911 5912 5914 5915 5916 5917 5917 5918 5919 5920 5921 5923 5925 5926 5927 5928 5929 5929 5931 5932 5933 5934 5934 5935 5936 5936 5937 5937 5938 5939 5939
5895 5897 5900 5901 5902 5903 5904 5905 5905 5906 5907 5908 5909 5910 5911 5912 5913 5913 5914 5914 5915 5917 5918 5921 5922 5923 5925 5926 5926 5927 5928 5929 5929 5930 5931 5931 5931 5932 5933 5934 5935 5936